Temp
58 59 60 61 62 59 55 54 56 57 57 59 63 65 65 67 68 66 65 66 66 68 72 71 71 73 74 70 66 67 67 68
58 57 58 60 59 58 56 52 50 51 56 55 56 57 66 66 66 64 64 64 63 65 68 69 70 70 71 71 72 72 72 72
55 57 57 56 57 56 55 52 50 50 51 51 57 57 63 64 64 63 63 61 61 61 58 59 58 60 63 65 68 69 72 71
53 53 55 57 56 56 57 55 51 50 50 52 54 58 60 59 60 61 59 59 57 54 54 54 54 55 56 56 57 59 65 72
50 53 50 53 53 53 55 52 55 54 53 52 52 56 56 56 58 57 57 57 53 52 51 52 53 53 53 53 56 55 56 58
48 47 47 48 48 48 49 53 52 51 51 48 49 50 52 56 56 53 53 53 53 51 50 50 50 51 51 50 50 51 53 54
45 46 47 47 50 51 50 50 50 50 46 48 48 46 45 47 48 48 50 49 49 49 49 49 49 49 48 49 50 50 51 52
43 45 47 49 48 49 50 50 50 49 47 45 45 43 45 44 43 42 43 43 44 46 46 46 47 47 48 48 48 50 51 50
44 44 45 45 46 45 46 47 47 48 46 45 46 45 44 44 43 41 41 42 43 44 44 45 45 46 46 47 47 49 51 50
42 44 43 44 46 43 42 44 45 45 45 44 43 42 42 41 43 43 41 41 43 43 43 43 43 44 44 45 45 46 47 48
44 48 45 44 44 43 42 42 41 42 43 43 42 41 41 42 43 41 41 41 41 40 40 41 41 42 42 43 43 44 44 45
46 48 48 45 44 43 41 41 41 40 41 42 41 41 41 41 41 40 40 41 40 39 39 40 40 40 41 41 41 41 40 41
47 48 47 44 42 42 41 40 40 40 41 41 40 40 41 41 40 40 40 40 41 40 40 39 40 40 40 39 39 39 38 37
47 46 44 42 40 40 40 40 40 41 42 41 41 41 41 40 40 40 40 41 40 39 39 38 39 39 39 39 39 38 38 38
47 44 41 40 39 39 40 41 42 43 42 41 40 41 41 41 41 41 41 41 40 39 39 39 39 39 38 38 40 39 38 38
44 42 39 39 38 39 40 41 42 43 41 39 38 40 40 40 39 39 40 41 41 41 41 41 41 39 37 36 39 39 38 36
42 41 38 38 38 39 39 40 41 42 39 38 38 38 39 37 38 38 39 38 38 38 38 39 39 39 33 33 36 37 36 35
39 38 37 37 37 39 39 40 42 40 38 37 36 35 34 34 35 36 35 35 36 33 34 35 35 35 33 32 34 35 34 33
38 37 37 37 38 37 39 41 40 38 36 34 35 34 32 32 32 30 31 31 30 30 30 31 32 32 31 31 33 34 32 32
MSLP
1019.14 1019.09 1018.97 1018.69 1018.48 1018.51 1018.57 1018.25 1017.70 1016.91 1016.32 1015.76 1015.17 1014.85 1014.74 1014.57 1014.60 1014.99 1014.89 1014.84 1014.59 1014.15 1013.13 1013.05 1013.04 1012.74 1012.06 1011.92 1011.90 1011.62 1011.19 1010.80
1019.59 1019.73 1019.58 1019.20 1019.10 1018.94 1019.02 1018.87 1018.56 1017.91 1017.13 1016.62 1016.15 1015.87 1015.24 1015.11 1015.33 1015.67 1015.57 1015.42 1015.23 1014.84 1014.13 1013.65 1013.28 1012.98 1012.72 1012.30 1011.63 1011.05 1010.63 1010.50
1019.86 1019.77 1019.77 1019.81 1019.66 1019.54 1019.52 1019.46 1019.24 1018.93 1018.51 1018.10 1017.36 1016.73 1016.15 1015.93 1015.98 1016.00 1016.15 1016.13 1015.89 1015.68 1015.72 1015.18 1014.87 1014.24 1013.87 1013.19 1012.25 1011.36 1010.61 1010.28
1019.94 1020.07 1020.04 1019.98 1019.89 1019.66 1019.39 1019.60 1019.77 1019.77 1019.35 1018.66 1017.99 1017.01 1016.68 1016.48 1016.37 1016.42 1016.71 1016.69 1016.62 1016.75 1016.44 1016.01 1015.62 1015.00 1014.47 1014.22 1013.63 1012.92 1011.36 1010.12
1020.67 1020.56 1020.77 1020.65 1020.73 1020.73 1020.42 1020.34 1020.03 1020.01 1019.77 1019.38 1018.71 1017.86 1017.42 1017.41 1016.99 1017.11 1017.03 1017.10 1017.09 1017.06 1017.06 1016.54 1016.26 1015.69 1015.04 1014.75 1014.10 1013.57 1012.91 1011.65
1021.24 1021.65 1021.89 1022.06 1021.96 1021.86 1021.73 1021.11 1021.00 1020.64 1020.39 1020.24 1019.58 1019.05 1018.39 1017.91 1017.79 1017.59 1017.27 1017.46 1017.40 1017.31 1017.56 1016.95 1016.83 1016.12 1015.54 1015.23 1014.76 1014.09 1013.50 1012.60
1021.80 1022.20 1022.37 1022.37 1022.19 1021.89 1021.79 1021.54 1021.38 1021.17 1021.11 1020.54 1020.50 1020.01 1019.40 1018.88 1018.38 1018.57 1017.32 1018.01 1017.78 1017.95 1017.91 1017.55 1017.00 1016.46 1015.80 1015.40 1015.03 1014.34 1013.67 1013.03
1022.02 1022.16 1022.16 1022.21 1022.35 1022.24 1021.96 1021.55 1021.30 1021.26 1021.15 1021.04 1021.01 1020.55 1019.77 1019.29 1018.53 1018.22 1018.38 1018.35 1018.78 1018.49 1018.38 1017.69 1017.15 1016.36 1015.80 1015.67 1015.05 1014.20 1013.56 1013.10
1022.03 1022.35 1022.46 1022.70 1022.63 1022.81 1022.73 1022.08 1021.75 1021.51 1021.46 1021.24 1021.35 1020.87 1020.42 1020.02 1019.85 1019.61 1019.32 1018.94 1019.30 1018.74 1018.37 1018.19 1017.39 1016.66 1016.19 1015.68 1014.94 1013.95 1013.34 1012.95
1022.12 1022.41 1022.72 1022.97 1022.92 1023.30 1023.15 1022.74 1022.39 1022.12 1022.03 1021.85 1021.50 1021.40 1021.29 1020.96 1020.76 1020.36 1020.26 1019.80 1019.64 1019.54 1019.17 1018.43 1017.60 1017.04 1016.35 1015.54 1014.72 1014.08 1013.83 1013.17
1021.82 1022.07 1022.49 1023.07 1023.29 1023.56 1023.42 1023.19 1022.96 1022.85 1022.75 1022.31 1022.10 1021.98 1021.71 1021.60 1021.32 1020.95 1020.64 1020.37 1020.27 1019.90 1019.55 1018.62 1017.95 1017.21 1016.43 1015.69 1015.10 1014.44 1014.07 1013.39
1021.36 1021.89 1022.33 1022.89 1023.25 1023.60 1023.65 1023.41 1023.28 1023.32 1023.11 1022.74 1022.53 1022.48 1021.83 1022.13 1022.04 1021.70 1021.06 1021.08 1020.59 1020.23 1019.44 1018.84 1018.19 1017.45 1016.67 1016.11 1015.53 1014.90 1014.49 1013.92
1021.15 1021.83 1022.39 1022.97 1023.46 1023.68 1023.72 1023.63 1023.45 1023.40 1023.34 1023.10 1022.98 1022.80 1022.48 1022.66 1022.35 1022.06 1021.72 1021.36 1020.92 1020.14 1019.57 1019.05 1018.33 1017.70 1017.16 1016.59 1016.02 1015.57 1014.81 1014.34
1021.02 1021.73 1022.49 1023.25 1023.58 1023.78 1023.78 1023.74 1023.64 1023.60 1023.56 1023.46 1023.21 1023.14 1022.90 1022.97 1022.63 1022.36 1022.12 1021.54 1020.96 1020.52 1019.83 1019.33 1018.82 1018.19 1017.62 1017.01 1016.47 1015.95 1015.39 1014.89
1020.87 1021.77 1022.72 1023.46 1023.72 1023.86 1023.83 1023.72 1023.65 1023.63 1023.68 1023.69 1023.51 1023.51 1023.39 1023.12 1023.07 1022.77 1022.29 1022.00 1021.29 1020.80 1020.50 1019.94 1019.42 1018.91 1018.33 1017.60 1016.88 1016.56 1016.05 1015.69
1020.87 1021.79 1023.01 1023.53 1023.89 1023.84 1023.96 1023.81 1023.74 1023.84 1023.91 1024.12 1024.02 1023.98 1023.87 1023.71 1023.62 1023.23 1022.80 1022.21 1021.92 1021.59 1020.98 1020.36 1020.03 1019.51 1019.21 1018.66 1017.67 1017.19 1016.55 1016.16
1021.06 1021.96 1023.17 1023.57 1024.00 1023.75 1024.03 1023.92 1023.97 1024.16 1024.35 1024.50 1024.55 1024.59 1024.35 1024.29 1023.91 1023.53 1023.45 1023.13 1022.72 1022.53 1022.01 1021.33 1020.70 1020.19 1020.13 1019.58 1018.85 1018.05 1017.51 1017.14
1021.21 1022.30 1023.19 1023.72 1024.13 1023.96 1024.04 1024.17 1024.36 1024.66 1024.89 1025.07 1025.14 1025.35 1025.28 1025.18 1024.93 1024.65 1024.29 1023.85 1023.63 1023.60 1023.01 1022.47 1021.79 1021.39 1020.88 1020.15 1019.41 1019.07 1018.58 1018.23
1021.56 1022.57 1023.33 1023.84 1024.20 1024.27 1024.40 1024.48 1024.82 1025.17 1025.46 1025.70 1025.83 1025.94 1025.91 1025.87 1025.48 1025.13 1024.99 1024.81 1024.35 1024.20 1023.94 1023.51 1022.65 1022.40 1021.91 1021.15 1020.23 1019.83 1019.67 1019.12
Wind_Speed
12 13 12 13 13 13 14 13 17 14 9 7 6 6 6 7 8 8 11 9 11 9 7 7 7 8 8 7 8 6 7 7
10 11 11 11 12 13 14 14 15 11 11 8 5 7 6 6 7 10 10 10 11 10 8 8 8 8 10 10 9 11 10 10
9 10 10 10 11 12 12 14 15 12 9 8 6 5 4 5 7 8 11 11 11 11 10 9 9 8 11 12 11 9 10 9
8 10 12 13 14 13 12 12 11 11 12 7 6 3 3 5 6 7 10 11 12 11 12 10 10 8 7 10 9 11 11 10
6 8 11 13 13 12 12 12 12 11 12 9 10 8 6 6 7 7 8 11 10 11 12 12 10 9 9 9 9 9 8 10
7 9 10 11 11 11 13 13 13 12 12 10 8 7 7 6 7 8 10 10 11 11 13 12 11 8 9 10 11 10 8 8
6 7 7 7 9 9 9 10 11 13 12 13 12 11 8 7 8 7 8 7 9 10 13 11 11 10 10 10 11 10 9 9
4 5 6 8 10 11 10 11 11 11 11 11 12 13 12 11 12 10 10 9 9 11 12 12 10 11 11 11 11 10 9 9
3 5 7 8 9 10 11 11 12 12 12 12 11 13 9 9 10 9 8 8 8 13 12 12 12 12 11 11 9 8 10 9
1 1 5 6 8 8 10 11 11 12 12 10 12 12 12 10 10 8 7 8 9 11 11 12 13 12 12 13 9 11 11 11
2 2 4 5 6 6 8 9 10 11 10 10 9 10 11 10 10 10 10 9 10 10 11 11 13 13 13 12 10 10 12 9
5 2 2 5 6 6 7 8 9 9 9 10 10 10 11 10 9 9 10 9 10 10 12 12 14 14 15 12 13 13 13 12
5 2 3 5 5 6 7 7 8 9 9 9 10 10 10 10 10 10 10 9 10 12 13 13 15 15 14 13 14 13 13 14
7 5 4 4 5 5 6 7 7 7 8 8 8 9 9 10 10 10 10 11 12 13 14 15 16 16 16 14 13 13 13 13
7 6 6 5 5 5 6 6 7 7 8 9 9 10 10 10 10 10 10 10 12 13 14 15 16 17 17 15 14 14 14 14
9 7 6 6 5 5 6 6 7 7 7 8 9 9 9 9 9 10 10 12 13 13 13 15 15 17 15 18 14 15 16 16
10 9 8 7 6 6 6 6 7 7 8 8 9 9 10 10 10 11 11 11 13 14 14 15 18 14 26 23 17 14 15 16
12 11 9 7 7 6 7 7 7 8 8 8 8 8 9 10 10 11 11 12 12 13 14 14 17 19 29 25 20 13 13 15
13 10 10 8 8 6 6 7 7 8 9 9 9 9 9 9 10 11 11 10 11 12 13 14 14 16 28 26 19 13 11 14
Wind_Direction
35 30 25 27 25 29 22 17 14 9 9 352 7 32 38 31 32 23 10 4 352 331 313 316 305 290 269 250 254 268 270 253
37 32 27 22 30 30 27 21 17 14 13 9 0 6 10 26 22 16 11 4 1 339 331 322 317 303 305 301 287 276 263 260
25 27 33 32 30 28 27 24 20 20 11 358 352 348 1 8 12 10 10 2 1 354 350 341 332 324 315 309 301 288 273 268
14 18 24 26 27 25 28 30 25 21 4 4 348 351 3 12 11 9 356 1 5 358 352 345 334 331 319 311 307 307 289 268
31 24 21 16 15 11 20 18 18 23 16 13 10 3 359 6 360 9 358 1 2 2 351 342 332 331 323 321 318 309 294 285
31 22 15 17 11 9 8 3 13 17 12 17 16 358 358 355 359 360 15 358 358 1 345 338 327 325 323 319 314 311 307 291
41 24 22 12 9 15 14 6 16 10 16 12 9 2 10 353 8 348 24 5 357 351 344 331 327 326 324 317 305 299 295 288
39 23 13 11 10 3 7 10 15 16 18 16 9 2 8 0 15 11 6 5 349 349 338 338 330 330 326 313 307 300 295 289
58 16 5 9 0 8 6 3 11 14 13 15 7 15 6 9 6 2 3 3 342 347 345 336 336 333 326 318 309 305 301 297
159 18 10 9 358 14 9 7 12 14 11 13 16 13 11 7 7 13 7 12 353 354 346 344 348 340 336 332 326 325 321 313
197 25 21 16 20 15 21 20 21 12 13 20 18 19 18 10 9 14 14 14 9 3 357 358 358 355 351 346 340 336 336 329
186 113 39 45 33 24 25 28 29 20 19 23 25 21 24 22 16 18 19 18 16 13 14 7 9 5 5 2 359 1 352 351
160 126 64 53 38 36 36 36 35 30 27 27 26 25 28 20 25 23 25 23 23 24 22 17 16 15 15 12 12 4 7 5
169 142 102 62 57 47 49 44 43 42 40 36 35 34 30 22 21 25 23 20 27 26 24 21 19 18 17 17 17 15 14 11
168 143 112 92 76 65 58 62 52 47 43 36 36 31 24 27 19 21 27 25 28 29 27 26 23 21 18 12 19 23 25 19
164 152 135 123 103 92 74 55 57 49 49 42 39 32 32 31 27 27 26 29 29 28 27 28 28 28 18 12 16 22 24 20
159 144 150 130 127 101 90 76 64 62 51 47 42 37 35 31 29 33 32 30 31 28 27 27 27 27 18 18 13 21 25 23
161 157 152 140 133 107 92 84 80 73 61 54 50 42 42 35 31 36 34 34 35 31 29 27 30 25 18 17 18 24 25 23
157 156 150 145 137 120 91 90 85 80 72 60 51 49 49 42 40 39 36 34 37 37 29 25 30 23 19 17 11 26 18 27